Location: Sluknov
(51.0170°N, 14.4670°E)
Time: 10:44:27
(UTC+01:00)

ARIANE 6 FM1 Upper Stage - Pass Details

Date: 18 February 2026
Orbit: 523 x 607 km, 62.0° (Epoch: 7 March)

Event Time Altitude Azimuth Distance (km) Brightness Sun altitude
Rises 18:37:20 0° 310° (NW) 2,661 6.9 -12.2°
Reaches altitude 10° 18:39:33 10° 307° (NW) 1,768 6.0 -12.6°
Maximum altitude 18:43:25 55° 229° (SW) 634 3.2 -13.2°
Drops below altitude 10° 18:47:18 10° 151° (SSE) 1,769 4.9 -13.8°
Enters shadow 18:48:22 - 149° (SSE) 2,201 5.4 -13.9°
